Weather Roundup
Issued by NWS Springfield, MO

Current Version | Previous Version | Text Only | Print | Product List | Glossary On
Versions: 1 2 3 4 5 6 7 8 9 10 11 12 13 14 15 16 17 18 19 20 21 22 23 24 25 26 27 28 29 30 31 32 33 34 35 36 37 38 39 40 41 42 43 44 45 46 47 48 49 50
000
NZUS99 KSGF 011507
HRRSGF

HOURLY WEATHER
NATIONAL WEATHER SERVICE SPRINGFIELD MO
1000 AM CDT WED JUL 01 2015

......SGF CWA......

CITY           SKY/WX    TMP DP  RH WIND       PRES   REMARKS
SPRINGFIELD    CLOUDY    69  66  90 E9        30.00F
JOPLIN         CLOUDY    79  72  79 VRB5      29.95R
WEST PLAINS    RAIN      68  65  90 N12       30.05R FOG
ROLLA          LGT RAIN  66  66 100 S14G22    29.97F FOG
OSAGE BEACH    CLOUDY    68  64  88 SE12      29.97F
BRANSON        CLOUDY    70  66  88 CALM      30.02R

......SURROUNDING SGF CWA......

CITY           SKY/WX    TMP DP  RH WIND       PRES   REMARKS
CHANUTE        CLOUDY    80  73  79 SE8       29.88F
PARSONS        CLOUDY    82  73  74 VRB3      29.90S
COFFEYVILLE    PTSUNNY   85  72  65 SW9       29.88S HX  91
EMPORIA        CLOUDY    80  66  62 S9        29.83F
GROVE OK       PTSUNNY   82  72  69 S5        29.95R
ROGERS AR      PTSUNNY   79  72  79 SW7       30.00R
SILOAM SPRINGS CLOUDY    81  68  65 SW9       29.98R
HARRISON AR    CLOUDY    74  69  85 SE3       30.02R
NEAR YELLVILLE CLOUDY    70  66  88 CALM      29.98R

......KANSAS AND MISSOURI......

CITY           SKY/WX    TMP DP  RH WIND       PRES   REMARKS
KANSAS CTY INT PTSUNNY   71  69  93 S16       29.83F
DOWNTOWN KC    PTSUNNY   73  68  84 S15       29.83F
COLUMBIA       CLOUDY    72  69  90 S14       29.93R
SEDALIA        CLOUDY    71  68  90 S15       29.93F
ST JOSEPH      PTSUNNY   75  69  81 NE7       29.85R
ST LOUIS       CLOUDY    75  66  73 W14       29.94R
SPIRIT OF STL  CLOUDY    72  69  90 SW5       29.92F
KIRKSVILLE     MOSUNNY   75  67  76 S3        29.92R
WICHITA        PTSUNNY   86  63  45 SW20G28   29.82F
TOPEKA         MOSUNNY   76  69  79 SE15      29.82S
OLATHE         PTSUNNY   73  69  87 S16G22    29.86S

......TENNESSEE......

CITY           SKY/WX    TMP DP  RH WIND       PRES   REMARKS
MEMPHIS        CLOUDY    79  72  79 S8G17     30.01R
NASHVILLE      CLOUDY    76  73  91 SW5       30.00R

......ARKANSAS.......

CITY           SKY/WX    TMP DP  RH WIND       PRES   REMARKS
FAYETTEVILLE     N/A     80  72  76 VRB3      29.98R
FT SMITH       PTSUNNY   82  69  64 SW9       29.94S
LITTLE ROCK    PTSUNNY   81  70  69 SW7       30.00R

......OKLAHOMA.......

CITY           SKY/WX    TMP DP  RH WIND       PRES   REMARKS
TULSA          CLOUDY    83  71  67 SW9       29.90R
PONCA CITY     MOSUNNY   88  68  51 SW16G25   29.87F HX  91
MCALESTER      MOSUNNY   82  71  69 SW15      29.97S
OKLAHOMA CITY  PTSUNNY   84  70  62 SW14      29.94R

......IOWA............

CITY           SKY/WX    TMP DP  RH WIND       PRES   REMARKS
DES MOINES     CLOUDY    70  61  73 E13       29.89F
QUAD CITIES    CLOUDY    66  60  81 E8        29.95R HAZE

......ILLINOIS........

CITY           SKY/WX    TMP DP  RH WIND       PRES   REMARKS
QUINCY         CLOUDY    75  67  76 S3        29.91S
CHICAGO        PTSUNNY   63  53  70 NE6       29.97S




USA.gov is the U.S. government's official web portal to all federal, state and local government web resources and services.